Location: Bonningues
(50.7927°N, 2.0150°E)
Time: 10:43:35
(UTC+00:00)

BREEZE-M DEB (TANK) - Pass Details

Date: 08 August 2020
Orbit: 279 x 20489 km, 49.2° (Epoch: 20 September)

Event Time Altitude Azimuth Distance (km) Brightness Sun altitude
Rises 19:50:27 0° 254° (WSW) 4,491 8.2 -4.4°
Reaches altitude 10° 19:54:46 10° 251° (WSW) 2,290 6.6 -5.0°
Maximum altitude 19:58:46 55° 173° (S) 463 2.2 -5.5°
Drops below altitude 10° 20:00:47 10° 93° (E) 1,156 4.0 -5.8°
Enters shadow 20:01:26 - 89° (E) 1,500 4.6 -5.8°
